Time,TemperatureF,DewpointF,PressureIn,WindDirection,WindDirectionDegrees,WindSpeedMPH,WindSpeedGustMPH,Humidity,HourlyPrecipIn,Conditions,Clouds,dailyrainin,SoftwareType,DateUTC
2013-09-25 00:09:00,64.6,60.3,30.03,ENE,66,2.0,3.0,86,0.00,CLR,SKC,0.00,WeatherDisplay:10.37,2013-09-24 22:09:00,
2013-09-25 00:19:00,64.6,60.3,30.02,ENE,66,1.0,3.0,86,0.00,CLR,SKC,0.00,WeatherDisplay:10.37,2013-09-24 22:19:00,
2013-09-25 00:29:00,64.5,60.5,30.03,ENE,67,2.0,4.0,87,0.00,CLR,SKC,0.00,WeatherDisplay:10.37,2013-09-24 22:29:00,
2013-09-25 00:39:00,64.4,60.4,30.02,ENE,67,1.0,3.0,87,0.00,CLR,SKC,0.00,WeatherDisplay:10.37,2013-09-24 22:39:00,
2013-09-25 00:49:00,64.3,60.3,30.02,ENE,67,0.0,3.0,87,0.00,CLR,SKC,0.00,WeatherDisplay:10.37,2013-09-24 22:49:00,
2013-09-25 00:59:00,64.2,60.2,30.02,ENE,67,0.0,3.0,87,0.00,CLR,SKC,0.00,WeatherDisplay:10.37,2013-09-24 22:59:00,
2013-09-25 01:09:00,64.1,60.2,30.02,ENE,67,1.0,3.0,87,0.00,CLR,SKC,0.00,WeatherDisplay:10.37,2013-09-24 23:09:00,
2013-09-25 01:19:00,64.0,60.1,30.02,ENE,67,1.0,3.0,87,0.00,CLR,SKC,0.00,WeatherDisplay:10.37,2013-09-24 23:19:00,
2013-09-25 01:29:00,63.9,60.0,30.02,ENE,67,2.0,3.0,87,0.00,CLR,SKC,0.00,WeatherDisplay:10.37,2013-09-24 23:29:00,
2013-09-25 01:39:00,63.8,59.8,30.02,ENE,67,1.0,3.0,87,0.00,CLR,SKC,0.00,WeatherDisplay:10.37,2013-09-24 23:39:00,
2013-09-25 01:49:00,63.6,60.0,30.02,ENE,67,2.0,4.0,88,0.00,CLR,SKC,0.00,WeatherDisplay:10.37,2013-09-24 23:49:00,
2013-09-25 01:59:00,63.5,59.9,30.02,ENE,69,2.0,4.0,88,0.00,CLR,SKC,0.00,WeatherDisplay:10.37,2013-09-24 23:59:00,
2013-09-25 02:09:00,63.5,59.9,30.02,ENE,70,2.0,3.0,88,0.00,CLR,SKC,0.00,WeatherDisplay:10.37,2013-09-25 00:09:00,
2013-09-25 02:19:00,63.4,59.8,30.01,ENE,70,2.0,3.0,88,0.00,CLR,SKC,0.00,WeatherDisplay:10.37,2013-09-25 00:19:00,
2013-09-25 02:29:00,63.2,59.6,30.02,ENE,70,1.0,3.0,88,0.00,CLR,SKC,0.00,WeatherDisplay:10.37,2013-09-25 00:29:00,
2013-09-25 02:39:00,63.2,59.6,30.01,ENE,70,0.0,3.0,88,0.00,CLR,SKC,0.00,WeatherDisplay:10.37,2013-09-25 00:39:00,
2013-09-25 02:49:00,63.2,59.6,30.02,ENE,70,2.0,4.0,88,0.00,CLR,SKC,0.00,WeatherDisplay:10.37,2013-09-25 00:49:00,
2013-09-25 02:59:00,63.2,59.6,30.01,ENE,71,0.0,3.0,88,0.00,CLR,SKC,0.00,WeatherDisplay:10.37,2013-09-25 00:59:00,
2013-09-25 03:09:00,63.2,59.9,30.01,ENE,71,0.0,2.0,89,0.00,CLR,SKC,0.00,WeatherDisplay:10.37,2013-09-25 01:09:00,
2013-09-25 03:19:00,63.2,59.9,30.01,ENE,71,2.0,3.0,89,0.00,CLR,SKC,0.00,WeatherDisplay:10.37,2013-09-25 01:19:00,
2013-09-25 03:29:00,63.3,60.0,30.00,ENE,70,1.0,4.0,89,0.00,CLR,SKC,0.00,WeatherDisplay:10.37,2013-09-25 01:29:00,
2013-09-25 03:39:00,63.3,60.0,30.00,ENE,71,2.0,4.0,89,0.00,CLR,SKC,0.00,WeatherDisplay:10.37,2013-09-25 01:39:00,
2013-09-25 03:49:00,63.3,60.0,30.00,ENE,71,1.0,4.0,89,0.00,CLR,SKC,0.00,WeatherDisplay:10.37,2013-09-25 01:49:00,
2013-09-25 03:59:00,63.2,59.9,30.00,ENE,71,2.0,3.0,89,0.00,CLR,SKC,0.00,WeatherDisplay:10.37,2013-09-25 01:59:00,
2013-09-25 04:09:00,63.1,59.8,30.00,ENE,72,2.0,3.0,89,0.00,CLR,SKC,0.00,WeatherDisplay:10.37,2013-09-25 02:09:00,
2013-09-25 04:19:00,63.1,59.8,30.00,ENE,73,2.0,4.0,89,0.00,CLR,SKC,0.00,WeatherDisplay:10.37,2013-09-25 02:19:00,
2013-09-25 04:29:00,63.3,59.7,30.00,ENE,74,0.0,4.0,88,0.00,CLR,SKC,0.00,WeatherDisplay:10.37,2013-09-25 02:29:00,
2013-09-25 04:39:00,63.5,59.9,30.00,ENE,74,1.0,3.0,88,0.00,CLR,SKC,0.00,WeatherDisplay:10.37,2013-09-25 02:39:00,
2013-09-25 04:49:00,63.7,60.1,29.99,ENE,74,0.0,1.0,88,0.00,CLR,SKC,0.00,WeatherDisplay:10.37,2013-09-25 02:49:00,
2013-09-25 04:59:00,63.7,60.1,29.99,ENE,74,2.0,4.0,88,0.00,CLR,SKC,0.00,WeatherDisplay:10.37,2013-09-25 02:59:00,
2013-09-25 05:09:00,63.7,60.1,29.99,ENE,74,0.0,3.0,88,0.00,CLR,SKC,0.00,WeatherDisplay:10.37,2013-09-25 03:09:00,
2013-09-25 05:19:00,63.9,60.3,29.99,ENE,74,0.0,0.0,88,0.00,CLR,SKC,0.00,WeatherDisplay:10.37,2013-09-25 03:19:00,
2013-09-25 05:29:00,64.0,60.1,29.99,ENE,75,0.0,3.0,87,0.00,CLR,SKC,0.00,WeatherDisplay:10.37,2013-09-25 03:29:00,
2013-09-25 05:39:00,64.0,60.1,29.99,ENE,75,1.0,3.0,87,0.00,CLR,SKC,0.00,WeatherDisplay:10.37,2013-09-25 03:39:00,
2013-09-25 05:49:00,63.9,59.9,29.99,ENE,75,0.0,2.0,87,0.00,CLR,SKC,0.00,WeatherDisplay:10.37,2013-09-25 03:49:00,
2013-09-25 05:59:00,63.7,59.8,29.99,ENE,75,0.0,2.0,87,0.00,CLR,SKC,0.00,WeatherDisplay:10.37,2013-09-25 03:59:00,
2013-09-25 06:09:00,63.5,59.6,29.99,ENE,75,0.0,3.0,87,0.00,CLR,SKC,0.00,WeatherDisplay:10.37,2013-09-25 04:09:00,
2013-09-25 06:19:00,63.5,59.6,29.99,ENE,75,1.0,3.0,87,0.00,CLR,SKC,0.00,WeatherDisplay:10.37,2013-09-25 04:19:00,
2013-09-25 06:29:00,63.4,59.5,29.99,ENE,75,1.0,3.0,87,0.00,CLR,SKC,0.00,WeatherDisplay:10.37,2013-09-25 04:29:00,
2013-09-25 06:39:00,63.2,59.3,29.99,ENE,77,1.0,3.0,87,0.00,CLR,SKC,0.00,WeatherDisplay:10.37,2013-09-25 04:39:00,
2013-09-25 06:49:00,63.0,59.1,30.00,East,80,1.0,3.0,87,0.00,CLR,SKC,0.00,WeatherDisplay:10.37,2013-09-25 04:49:00,
2013-09-25 06:59:00,62.9,59.0,30.00,East,84,0.0,5.0,87,0.00,CLR,SKC,0.00,WeatherDisplay:10.37,2013-09-25 04:59:00,
2013-09-25 07:09:00,62.8,58.5,30.00,ESE,119,2.0,5.0,86,0.00,CLR,SKC,0.00,WeatherDisplay:10.37,2013-09-25 05:09:00,
2013-09-25 07:19:00,62.7,58.5,30.01,SSE,147,1.0,3.0,86,0.00,CLR,SKC,0.00,WeatherDisplay:10.37,2013-09-25 05:19:00,
2013-09-25 07:29:00,62.9,59.0,30.01,SSE,147,1.0,3.0,87,0.00,CLR,SKC,0.00,WeatherDisplay:10.37,2013-09-25 05:29:00,
2013-09-25 07:39:00,63.4,59.5,30.01,SSE,147,1.0,4.0,87,0.00,CLR,SKC,0.00,WeatherDisplay:10.37,2013-09-25 05:39:00,
2013-09-25 07:49:00,63.9,60.0,30.01,SSE,147,0.0,2.0,87,0.00,CLR,SKC,0.00,WeatherDisplay:10.37,2013-09-25 05:49:00,
2013-09-25 07:59:00,64.5,60.5,30.01,SSE,147,0.0,2.0,87,0.00,CLR,SKC,0.00,WeatherDisplay:10.37,2013-09-25 05:59:00,
2013-09-25 08:09:00,64.9,61.0,30.01,SSE,147,0.0,2.0,87,0.00,CLR,SKC,0.00,WeatherDisplay:10.37,2013-09-25 06:09:00,
2013-09-25 08:19:00,65.4,61.4,30.01,SSE,147,0.0,0.0,87,0.00,CLR,SKC,0.00,WeatherDisplay:10.37,2013-09-25 06:19:00,
2013-09-25 08:29:00,66.1,61.8,30.01,SSE,147,1.0,3.0,86,0.00,CLR,SKC,0.00,WeatherDisplay:10.37,2013-09-25 06:29:00,
2013-09-25 08:39:00,67.2,62.2,30.01,SSE,147,0.0,3.0,84,0.00,CLR,SKC,0.00,WeatherDisplay:10.37,2013-09-25 06:39:00,
2013-09-25 08:49:00,67.8,62.1,30.02,SSE,147,0.0,0.0,82,0.00,CLR,SKC,0.00,WeatherDisplay:10.37,2013-09-25 06:49:00,
2013-09-25 08:59:00,69.1,62.6,30.02,SSE,147,0.0,0.0,80,0.00,CLR,SKC,0.00,WeatherDisplay:10.37,2013-09-25 06:59:00,
2013-09-25 09:09:00,70.3,62.8,30.02,SSE,147,0.0,1.0,77,0.00,CLR,SKC,0.00,WeatherDisplay:10.37,2013-09-25 07:09:00,
2013-09-25 09:19:00,71.3,63.0,30.02,SSE,147,0.0,2.0,75,0.00,CLR,SKC,0.00,WeatherDisplay:10.37,2013-09-25 07:19:00,
2013-09-25 09:29:00,72.0,63.2,30.03,SSE,147,2.0,4.0,74,0.00,CLR,SKC,0.00,WeatherDisplay:10.37,2013-09-25 07:29:00,
2013-09-25 09:39:00,71.7,63.3,30.03,South,182,3.0,5.0,75,0.00,CLR,SKC,0.00,WeatherDisplay:10.37,2013-09-25 07:39:00,
2013-09-25 09:49:00,71.4,62.7,30.03,South,177,1.0,6.0,74,0.00,CLR,SKC,0.00,WeatherDisplay:10.37,2013-09-25 07:49:00,
2013-09-25 09:59:00,72.0,63.6,30.03,SSE,164,2.0,6.0,75,0.00,CLR,SKC,0.00,WeatherDisplay:10.37,2013-09-25 07:59:00,
2013-09-25 10:09:00,71.6,63.3,30.03,SSW,196,3.0,7.0,75,0.00,CLR,SKC,0.00,WeatherDisplay:10.37,2013-09-25 08:09:00,
2013-09-25 10:19:00,72.2,63.8,30.03,South,176,1.0,6.0,75,0.00,CLR,SKC,0.00,WeatherDisplay:10.37,2013-09-25 08:19:00,
2013-09-25 10:29:00,72.3,63.6,30.03,South,186,1.0,9.0,74,0.00,CLR,SKC,0.00,WeatherDisplay:10.37,2013-09-25 08:29:00,
2013-09-25 10:39:00,73.1,64.0,30.03,SSW,201,5.0,9.0,73,0.00,CLR,SKC,0.00,WeatherDisplay:10.37,2013-09-25 08:39:00,
2013-09-25 10:49:00,72.2,63.5,30.03,SSE,163,5.0,10.0,74,0.00,CLR,SKC,0.00,WeatherDisplay:10.37,2013-09-25 08:49:00,
2013-09-25 10:59:00,72.3,63.5,30.03,SSE,149,3.0,10.0,74,0.00,CLR,SKC,0.00,WeatherDisplay:10.37,2013-09-25 08:59:00,
2013-09-25 11:09:00,72.6,63.4,30.02,South,171,3.0,7.0,73,0.00,CLR,SKC,0.00,WeatherDisplay:10.37,2013-09-25 09:09:00,
2013-09-25 11:19:00,73.0,63.4,30.03,SSW,211,5.0,7.0,72,0.00,CLR,SKC,0.00,WeatherDisplay:10.37,2013-09-25 09:19:00,
2013-09-25 11:29:00,73.5,62.7,30.03,SSW,206,5.0,7.0,69,0.00,CLR,SKC,0.00,WeatherDisplay:10.37,2013-09-25 09:29:00,
2013-09-25 11:39:00,73.8,62.6,30.03,SW,219,1.0,6.0,68,0.00,CLR,SKC,0.00,WeatherDisplay:10.37,2013-09-25 09:39:00,
2013-09-25 11:49:00,73.0,62.6,30.02,NW,320,3.0,8.0,70,0.00,CLR,SKC,0.00,WeatherDisplay:10.37,2013-09-25 09:49:00,
2013-09-25 11:59:00,72.3,61.6,30.03,West,281,2.0,7.0,69,0.00,CLR,SKC,0.00,WeatherDisplay:10.37,2013-09-25 09:59:00,
2013-09-25 12:09:00,71.4,62.3,30.03,WNW,293,2.0,6.0,73,0.00,CLR,SKC,0.00,WeatherDisplay:10.37,2013-09-25 10:09:00,
2013-09-25 12:19:00,71.1,62.8,30.03,WNW,293,3.0,7.0,75,0.00,CLR,SKC,0.00,WeatherDisplay:10.37,2013-09-25 10:19:00,
2013-09-25 12:29:00,70.7,62.4,30.03,WNW,287,3.0,7.0,75,0.00,CLR,SKC,0.00,WeatherDisplay:10.37,2013-09-25 10:29:00,
2013-09-25 12:39:00,70.5,62.6,30.03,WNW,301,3.0,6.0,76,0.00,CLR,SKC,0.00,WeatherDisplay:10.37,2013-09-25 10:39:00,
2013-09-25 12:49:00,70.4,62.5,30.03,West,281,1.0,6.0,76,0.00,CLR,SKC,0.00,WeatherDisplay:10.37,2013-09-25 10:49:00,
2013-09-25 12:59:00,70.5,62.6,30.03,West,269,1.0,6.0,76,0.00,CLR,SKC,0.00,WeatherDisplay:10.37,2013-09-25 10:59:00,
2013-09-25 13:09:00,70.6,62.7,30.03,WNW,300,2.0,5.0,76,0.00,CLR,SKC,0.00,WeatherDisplay:10.37,2013-09-25 11:09:00,
2013-09-25 13:19:00,70.9,63.0,30.02,NW,307,2.0,6.0,76,0.00,CLR,SKC,0.00,WeatherDisplay:10.37,2013-09-25 11:19:00,
2013-09-25 13:29:00,70.8,63.2,30.02,NW,310,3.0,7.0,77,0.00,CLR,SKC,0.00,WeatherDisplay:10.37,2013-09-25 11:29:00,
2013-09-25 13:39:00,71.0,63.4,30.02,NW,317,3.0,7.0,77,0.00,CLR,SKC,0.00,WeatherDisplay:10.37,2013-09-25 11:39:00,
2013-09-25 13:49:00,70.8,62.9,30.02,NW,325,2.0,6.0,76,0.00,CLR,SKC,0.00,WeatherDisplay:10.37,2013-09-25 11:49:00,
2013-09-25 13:59:00,71.0,63.4,30.01,NW,308,2.0,6.0,77,0.00,CLR,SKC,0.00,WeatherDisplay:10.37,2013-09-25 11:59:00,
2013-09-25 14:09:00,70.9,63.3,30.01,WNW,303,3.0,9.0,77,0.00,CLR,SKC,0.00,WeatherDisplay:10.37,2013-09-25 12:09:00,
2013-09-25 14:19:00,72.1,63.7,30.01,West,269,3.0,8.0,75,0.00,CLR,SKC,0.00,WeatherDisplay:10.37,2013-09-25 12:19:00,
2013-09-25 14:29:00,72.0,64.0,30.01,West,261,1.0,8.0,76,0.00,CLR,SKC,0.00,WeatherDisplay:10.37,2013-09-25 12:29:00,
2013-09-25 14:39:00,71.7,63.8,30.01,West,278,1.0,7.0,76,0.00,CLR,SKC,0.00,WeatherDisplay:10.37,2013-09-25 12:39:00,
2013-09-25 14:49:00,71.5,63.2,30.01,SW,231,2.0,9.0,75,0.00,CLR,SKC,0.00,WeatherDisplay:10.37,2013-09-25 12:49:00,
2013-09-25 14:59:00,71.2,63.2,30.01,NW,311,2.0,7.0,76,0.00,CLR,SKC,0.00,WeatherDisplay:10.37,2013-09-25 12:59:00,
2013-09-25 15:09:00,71.2,63.2,30.01,NW,318,3.0,9.0,76,0.00,CLR,SKC,0.00,WeatherDisplay:10.37,2013-09-25 13:09:00,
2013-09-25 15:19:00,71.1,62.8,30.01,WNW,303,2.0,8.0,75,0.00,CLR,SKC,0.00,WeatherDisplay:10.37,2013-09-25 13:19:00,
2013-09-25 15:29:00,71.2,62.1,30.00,NW,320,6.0,9.0,73,0.00,CLR,SKC,0.00,WeatherDisplay:10.37,2013-09-25 13:29:00,
2013-09-25 15:39:00,71.2,62.1,30.00,NNW,328,5.0,8.0,73,0.00,CLR,SKC,0.00,WeatherDisplay:10.37,2013-09-25 13:39:00,
2013-09-25 15:49:00,71.8,62.3,30.00,NW,326,5.0,8.0,72,0.00,CLR,SKC,0.00,WeatherDisplay:10.37,2013-09-25 13:49:00,
2013-09-25 15:59:00,72.6,62.7,30.00,WNW,287,2.0,9.0,71,0.00,CLR,SKC,0.00,WeatherDisplay:10.37,2013-09-25 13:59:00,
2013-09-25 16:09:00,72.3,62.0,30.00,NW,319,3.0,8.0,70,0.00,CLR,SKC,0.00,WeatherDisplay:10.37,2013-09-25 14:09:00,
2013-09-25 16:19:00,73.1,62.7,30.00,NW,306,3.0,8.0,70,0.00,CLR,SKC,0.00,WeatherDisplay:10.37,2013-09-25 14:19:00,
2013-09-25 16:29:00,72.8,62.4,30.00,WNW,296,5.0,8.0,70,0.00,CLR,SKC,0.00,WeatherDisplay:10.37,2013-09-25 14:29:00,
2013-09-25 16:39:00,72.3,62.4,29.99,West,277,1.0,10.0,71,0.00,CLR,SKC,0.00,WeatherDisplay:10.37,2013-09-25 14:39:00,
2013-09-25 16:49:00,72.9,62.5,29.99,WNW,297,3.0,8.0,70,0.00,CLR,SKC,0.00,WeatherDisplay:10.37,2013-09-25 14:49:00,
2013-09-25 16:59:00,72.7,62.3,29.99,NW,322,2.0,8.0,70,0.00,CLR,SKC,0.00,WeatherDisplay:10.37,2013-09-25 14:59:00,
2013-09-25 17:09:00,72.8,62.1,29.99,NNW,331,3.0,8.0,69,0.00,CLR,SKC,0.00,WeatherDisplay:10.37,2013-09-25 15:09:00,
2013-09-25 17:19:00,72.2,61.9,29.99,NNW,332,2.0,8.0,70,0.00,CLR,SKC,0.00,WeatherDisplay:10.37,2013-09-25 15:19:00,
2013-09-25 17:29:00,72.6,61.8,29.99,NNW,329,2.0,8.0,69,0.00,CLR,SKC,0.00,WeatherDisplay:10.37,2013-09-25 15:29:00,
2013-09-25 17:39:00,72.2,61.9,29.98,NW,325,3.0,8.0,70,0.00,CLR,SKC,0.00,WeatherDisplay:10.37,2013-09-25 15:39:00,
2013-09-25 17:49:00,72.3,61.5,29.98,WNW,296,2.0,5.0,69,0.00,CLR,SKC,0.00,WeatherDisplay:10.37,2013-09-25 15:49:00,
2013-09-25 17:59:00,72.6,61.9,29.98,NW,321,2.0,5.0,69,0.00,CLR,SKC,0.00,WeatherDisplay:10.37,2013-09-25 15:59:00,
2013-09-25 18:09:00,72.3,61.5,29.98,NW,309,3.0,5.0,69,0.00,CLR,SKC,0.00,WeatherDisplay:10.37,2013-09-25 16:09:00,
2013-09-25 18:19:00,71.7,61.4,29.98,NW,313,3.0,8.0,70,0.00,CLR,SKC,0.00,WeatherDisplay:10.37,2013-09-25 16:19:00,
2013-09-25 18:29:00,71.3,61.4,29.98,NW,323,1.0,8.0,71,0.00,CLR,SKC,0.00,WeatherDisplay:10.37,2013-09-25 16:29:00,
2013-09-25 18:39:00,71.0,61.1,29.98,NW,319,3.0,6.0,71,0.00,CLR,SKC,0.00,WeatherDisplay:10.37,2013-09-25 16:39:00,
2013-09-25 18:49:00,70.6,60.8,29.98,NW,308,0.0,5.0,71,0.00,CLR,SKC,0.00,WeatherDisplay:10.37,2013-09-25 16:49:00,
2013-09-25 18:59:00,70.3,60.8,29.98,WNW,294,0.0,4.0,72,0.00,CLR,SKC,0.00,WeatherDisplay:10.37,2013-09-25 16:59:00,
2013-09-25 19:09:00,70.2,61.1,29.98,WNW,294,0.0,1.0,73,0.00,CLR,SKC,0.00,WeatherDisplay:10.37,2013-09-25 17:09:00,
2013-09-25 19:19:00,69.9,61.3,29.98,WNW,294,0.0,0.0,74,0.00,CLR,SKC,0.00,WeatherDisplay:10.37,2013-09-25 17:19:00,
2013-09-25 19:29:00,69.6,61.0,29.99,WNW,294,0.0,0.0,74,0.00,CLR,SKC,0.00,WeatherDisplay:10.37,2013-09-25 17:29:00,
2013-09-25 19:39:00,69.1,60.8,29.99,WNW,294,0.0,0.0,75,0.00,CLR,SKC,0.00,WeatherDisplay:10.37,2013-09-25 17:39:00,
2013-09-25 19:49:00,68.3,60.9,29.99,WNW,293,0.0,0.0,77,0.00,CLR,SKC,0.00,WeatherDisplay:10.37,2013-09-25 17:49:00,
2013-09-25 19:59:00,67.8,60.3,29.99,WNW,292,0.0,0.0,77,0.00,CLR,SKC,0.00,WeatherDisplay:10.37,2013-09-25 17:59:00,
2013-09-25 20:09:00,67.4,60.3,29.99,WNW,292,0.0,0.0,78,0.00,CLR,SKC,0.00,WeatherDisplay:10.37,2013-09-25 18:09:00,
2013-09-25 20:19:00,67.0,60.3,30.00,WNW,290,0.0,0.0,79,0.00,CLR,SKC,0.00,WeatherDisplay:10.37,2013-09-25 18:19:00,
2013-09-25 20:29:00,66.6,60.2,30.00,WNW,290,0.0,0.0,80,0.00,CLR,SKC,0.00,WeatherDisplay:10.37,2013-09-25 18:29:00,
2013-09-25 20:39:00,66.3,60.3,30.00,West,278,0.0,2.0,81,0.00,CLR,SKC,0.00,WeatherDisplay:10.37,2013-09-25 18:39:00,
2013-09-25 20:49:00,66.1,60.1,30.00,SW,224,0.0,0.0,81,0.00,CLR,SKC,0.00,WeatherDisplay:10.37,2013-09-25 18:49:00,
2013-09-25 20:59:00,66.0,60.0,30.00,SW,224,0.0,0.0,81,0.00,CLR,SKC,0.00,WeatherDisplay:10.37,2013-09-25 18:59:00,
2013-09-25 21:09:00,65.9,60.2,30.00,SW,224,0.0,0.0,82,0.00,CLR,SKC,0.00,WeatherDisplay:10.37,2013-09-25 19:09:00,
2013-09-25 21:19:00,65.8,60.2,30.00,SW,224,0.0,1.0,82,0.00,CLR,SKC,0.00,WeatherDisplay:10.37,2013-09-25 19:19:00,
2013-09-25 21:29:00,65.7,60.0,30.00,SW,224,0.0,2.0,82,0.00,CLR,SKC,0.00,WeatherDisplay:10.37,2013-09-25 19:29:00,
2013-09-25 21:39:00,65.5,59.9,30.00,SW,224,0.0,3.0,82,0.00,CLR,SKC,0.00,WeatherDisplay:10.37,2013-09-25 19:39:00,
2013-09-25 21:49:00,65.3,60.0,30.00,SW,224,0.0,3.0,83,0.00,CLR,SKC,0.00,WeatherDisplay:10.37,2013-09-25 19:49:00,
2013-09-25 21:59:00,65.1,59.8,30.00,SW,224,0.0,3.0,83,0.00,CLR,SKC,0.00,WeatherDisplay:10.37,2013-09-25 19:59:00,
2013-09-25 22:09:00,65.0,59.7,30.01,SW,224,1.0,3.0,83,0.00,CLR,SKC,0.00,WeatherDisplay:10.37,2013-09-25 20:09:00,
2013-09-25 22:19:00,64.9,59.6,30.00,SW,224,1.0,4.0,83,0.00,CLR,SKC,0.00,WeatherDisplay:10.37,2013-09-25 20:19:00,
2013-09-25 22:29:00,64.7,59.8,30.00,SW,224,1.0,3.0,84,0.00,CLR,SKC,0.00,WeatherDisplay:10.37,2013-09-25 20:29:00,
2013-09-25 22:39:00,64.6,59.7,30.00,SW,224,1.0,3.0,84,0.00,CLR,SKC,0.00,WeatherDisplay:10.37,2013-09-25 20:39:00,
2013-09-25 22:49:00,64.5,59.6,30.01,SW,224,2.0,3.0,84,0.00,CLR,SKC,0.00,WeatherDisplay:10.37,2013-09-25 20:49:00,
2013-09-25 22:59:00,64.4,59.5,30.01,SW,224,2.0,3.0,84,0.00,CLR,SKC,0.00,WeatherDisplay:10.37,2013-09-25 20:59:00,
2013-09-25 23:09:00,64.3,59.7,30.01,SW,224,1.0,3.0,85,0.00,CLR,SKC,0.00,WeatherDisplay:10.37,2013-09-25 21:09:00,
2013-09-25 23:20:00,64.4,59.8,30.01,SW,224,1.0,3.0,85,0.00,CLR,SKC,0.00,WeatherDisplay:10.37,2013-09-25 21:20:00,
2013-09-25 23:29:00,64.4,59.8,30.01,SW,224,1.0,3.0,85,0.00,CLR,SKC,0.00,WeatherDisplay:10.37,2013-09-25 21:29:00,
2013-09-25 23:39:00,64.4,59.8,30.01,SW,224,2.0,3.0,85,0.00,CLR,SKC,0.00,WeatherDisplay:10.37,2013-09-25 21:39:00,
2013-09-25 23:49:00,64.4,59.8,30.01,SW,224,0.0,3.0,85,0.00,CLR,SKC,0.00,WeatherDisplay:10.37,2013-09-25 21:49:00,
2013-09-25 23:59:00,64.4,59.7,30.01,SW,224,1.0,3.0,85,0.00,CLR,SKC,0.00,WeatherDisplay:10.37,2013-09-25 21:59:00,